RH
85 57 81 88 56 52 45 36 38 48 50 99 77 100 100 93 91 98 100 45 100 63 42 24 26 25 24 19 60 96 95 75 75 91 100 100 100 100 100 100 100 99 100 100
73 65 86 63 49 48 36 34 41 54 50 98 80 96 100 100 100 100 100 99 100 46 44 28 22 23 24 21 22 96 71 90 85 66 88 90 95 95 99 100 100 100 100 95
52 57 55 52 37 33 30 33 55 66 63 79 77 94 100 100 100 99 100 100 94 54 53 37 25 25 24 21 23 65 93 71 88 99 74 84 100 97 98 96 100 100 100 100
59 47 44 40 33 32 26 61 71 83 86 74 90 84 100 100 100 88 100 100 96 73 60 43 31 24 26 23 26 28 68 100 77 86 80 95 68 95 100 100 100 100 99 100
53 49 39 29 29 26 27 77 76 90 96 70 82 60 76 100 100 93 100 100 84 64 66 53 40 25 22 27 27 27 47 76 100 100 96 100 95 94 100 100 100 96 100 100
42 47 33 27 22 25 39 78 79 93 94 71 95 67 68 100 95 90 88 100 90 77 73 66 48 26 27 32 22 24 29 58 73 94 100 100 100 100 100 100 100 100 100 100
48 40 29 21 21 31 38 100 88 89 75 77 92 64 63 100 95 92 89 100 100 86 66 73 55 26 34 34 30 23 22 28 65 89 100 100 100 100 100 93 98 100 100 97
47 31 26 22 27 34 38 90 98 96 84 75 73 62 64 100 100 95 82 100 100 54 68 66 63 26 39 48 41 27 23 29 36 52 73 95 100 100 100 100 93 100 100 100
32 29 26 22 32 30 52 88 100 87 87 82 80 86 75 100 100 100 100 100 100 49 74 100 100 38 36 54 38 42 26 26 24 42 67 66 78 100 100 100 100 100 100 100
28 24 28 31 43 56 80 100 92 74 86 80 97 91 95 100 100 100 100 100 100 69 100 100 100 91 32 43 57 43 37 25 27 28 23 26 53 77 86 98 100 100 100 100
28 30 31 38 42 77 88 94 97 84 87 83 95 100 71 97 100 100 100 99 92 100 100 100 100 100 97 30 72 42 60 45 30 28 28 28 18 19 48 93 99 100 100 100
29 31 36 51 65 86 100 100 88 80 80 81 89 100 100 100 100 100 100 93 56 100 100 94 100 100 100 40 80 59 53 73 57 48 35 29 39 22 24 36 54 94 99 100
34 34 36 58 88 100 100 93 78 76 78 72 83 100 100 89 100 100 100 74 59 99 100 52 88 100 100 75 66 78 56 39 95 84 82 37 49 56 26 27 31 36 39 41
31 32 44 68 71 94 99 83 92 93 97 96 93 100 100 100 100 100 100 92 100 80 100 90 49 77 100 66 59 91 76 78 77 75 91 80 57 68 65 56 32 24 25 26
28 30 44 68 80 88 100 100 92 90 99 100 100 96 100 99 94 100 100 99 100 100 100 94 61 64 79 59 41 50 92 74 61 54 57 46 36 45 90 94 73 67 67 61
25 31 47 77 86 100 91 100 100 95 98 99 100 100 100 100 100 100 100 100 100 100 100 100 62 56 77 100 100 76 100 100 75 100 77 48 42 33 33 39 80 100 100 100
30 44 55 86 69 81 100 100 100 95 91 97 99 100 100 100 99 100 100 100 100 100 100 100 97 100 64 54 69 98 100 100 100 84 71 82 48 46 48 46 45 43 42 47
29 33 59 92 84 94 97 93 99 100 100 89 100 100 100 89 87 88 96 100 100 100 100 99 94 79 93 88 45 56 73 57 71 93 100 100 94 89 87 74 75 73 65 58
32 35 70 96 93 89 99 94 90 100 100 100 85 72 92 100 100 98 100 100 100 100 100 100 100 98 93 61 51 52 48 67 41 42 58 99 100 100 100 100 100 99 92 81
29 43 66 100 92 88 77 90 95 89 88 100 100 100 82 66 94 100 100 100 100 100 100 100 100 99 100 99 81 60 51 41 48 58 69 65 85 83 97 100 99 99 100 100
28 34 72 93 93 97 80 84 95 80 79 84 99 100 100 100 97 95 80 96 100 100 100 100 100 100 96 75 65 58 76 99 78 54 68 61 59 68 81 92 98 93 96 98
28 29 47 71 83 99 82 96 96 87 92 83 79 70 85 89 100 100 100 91 58 82 98 100 100 100 95 86 98 88 100 98 75 72 72 69 62 55 52 65 61 49 61 77
29 28 41 55 68 77 73 85 94 90 89 80 75 68 66 70 76 68 77 100 100 95 78 77 98 100 95 70 64 81 100 100 99 69 100 100 99 95 73 78 97 97 100 100
27 25 30 40 53 58 64 62 68 75 78 83 70 60 44 43 40 48 51 56 58 81 89 97 91 83 77 100 100 100 80 70 60 76 61 86 100 100 100 100 100 100 100 100
27 25 28 30 37 42 46 57 49 48 48 46 50 39 41 29 23 25 29 34 44 52 51 48 48 78 100 100 100 100 100 100 100 100 100 84 89 78 84 100 100 100 100 100
28 28 29 29 26 29 33 34 36 30 27 24 19 18 19 17 16 16 16 15 16 18 26 33 44 51 53 58 72 98 100 100 100 100 100 100 100 100 94 85 81 82 85 90
Wind_Speed
94 95 87 86 85 80 67 61 59 55 54 52 47 44 51 43 36 41 39 39 33 33 33 30 28 28 25 21 30 37 34 39 40 54 54 53 52 54 52 46 44 46 40 36
98 95 92 89 86 75 67 62 61 56 54 57 52 45 43 42 40 39 42 40 32 34 31 30 30 30 24 27 22 42 41 36 43 53 54 58 57 51 50 52 48 50 45 39
97 94 93 82 70 67 63 55 64 55 55 60 57 47 46 43 37 36 43 40 33 31 30 31 28 27 23 25 22 43 42 42 41 44 51 56 53 52 54 48 43 43 44 39
92 87 81 76 70 68 55 62 65 57 54 54 57 51 51 46 40 34 38 39 35 30 29 31 27 25 19 24 22 27 50 44 46 44 47 54 58 57 52 53 47 42 46 49
84 83 78 70 65 59 52 67 66 57 54 54 53 52 47 50 43 37 37 40 34 32 28 31 25 25 19 19 17 26 46 54 46 47 45 50 50 52 59 52 52 50 46 48
82 81 78 71 58 55 57 67 65 60 58 50 50 52 45 47 49 38 34 41 35 31 30 31 25 22 17 16 18 15 29 52 54 48 51 53 54 55 54 57 55 53 49 49
83 79 76 63 57 56 61 69 66 62 58 45 51 53 47 49 50 42 35 41 37 32 32 30 25 21 17 14 17 17 12 31 54 49 49 51 56 52 55 55 55 56 56 54
80 69 63 56 53 57 62 69 68 63 57 49 52 46 46 52 48 40 34 41 38 33 33 32 25 22 18 15 14 12 10 10 26 51 52 54 52 54 56 58 59 59 60 57
71 61 60 54 54 58 61 66 65 64 58 51 49 47 50 50 46 37 39 40 38 35 34 34 28 25 20 18 13 14 6 3 3 17 43 49 52 54 53 54 57 58 57 57
64 58 55 52 58 61 63 67 68 63 60 54 48 50 49 50 45 45 44 39 40 36 37 32 31 31 27 23 21 15 13 7 5 7 11 21 48 58 57 58 57 58 57 58
59 57 55 56 58 64 66 66 67 67 62 59 52 52 54 48 47 53 51 45 38 44 40 36 33 34 29 27 25 18 16 17 13 10 8 12 22 37 54 59 57 59 61 63
56 56 55 57 59 60 62 62 65 67 65 62 58 54 53 56 56 54 52 46 45 49 47 41 36 33 34 32 28 25 21 21 21 17 15 9 15 13 31 41 49 61 63 62
58 60 59 61 62 62 59 62 59 60 63 60 61 57 59 57 55 58 56 50 47 53 51 46 44 36 33 36 31 31 25 23 27 23 21 19 12 14 9 20 30 36 40 45
62 60 58 62 64 61 61 58 52 55 57 58 57 60 59 58 62 55 52 51 51 51 53 51 47 47 37 37 36 36 33 27 27 22 20 20 20 17 17 16 14 13 16 21
64 62 62 65 61 61 64 59 56 57 59 58 58 63 65 65 54 53 55 54 56 56 56 56 50 49 44 43 40 41 39 33 32 26 24 22 19 23 23 23 21 21 21 22
64 63 63 66 64 60 61 59 59 58 62 62 57 62 67 67 62 58 61 62 59 59 59 60 56 54 52 43 40 39 41 41 38 33 30 35 31 20 21 21 24 29 32 33
64 68 66 67 69 61 56 57 64 60 63 61 60 58 61 65 65 65 65 62 64 66 66 61 58 55 54 57 50 44 43 41 40 40 38 37 37 37 33 33 33 32 31 32
70 70 67 67 65 59 64 63 62 65 61 67 67 65 66 62 59 64 65 71 67 68 69 66 66 59 52 56 57 54 49 51 49 45 47 47 42 43 45 43 42 41 41 41
70 68 67 66 65 63 65 67 64 65 68 66 68 70 68 66 66 66 71 72 74 69 57 59 61 60 58 62 63 63 57 54 57 57 53 50 52 52 53 51 48 50 52 51
72 70 70 68 66 66 68 69 69 74 74 69 68 65 68 73 72 74 72 74 76 72 65 68 71 70 69 68 62 62 59 59 61 61 59 59 58 56 58 57 58 57 54 56
71 71 70 73 71 70 68 64 68 73 74 77 75 72 72 75 75 76 81 83 84 78 75 77 76 72 72 68 67 67 63 64 64 66 64 63 62 61 61 61 62 62 62 64
68 69 71 72 70 71 71 68 69 68 74 76 79 80 82 81 79 79 81 81 81 83 83 83 83 81 78 72 70 66 65 67 64 65 67 67 66 65 67 67 66 65 67 71
64 69 71 71 72 71 71 70 73 73 75 77 80 82 82 83 84 85 89 86 84 86 86 86 84 81 81 75 68 74 73 70 70 69 68 66 67 67 68 69 70 71 72 73
62 65 66 69 70 69 69 69 71 77 78 79 82 83 81 82 82 85 86 88 93 96 96 91 89 84 79 79 78 76 75 74 74 72 72 73 73 73 73 74 75 77 79 82
59 60 63 65 68 68 67 68 67 68 69 73 77 77 77 78 76 75 74 76 79 84 87 90 91 90 88 87 86 84 84 83 81 81 81 79 78 78 79 83 85 86 87 88
54 56 60 65 65 63 66 66 68 67 67 69 67 67 68 71 68 69 70 70 70 72 72 74 77 82 88 93 94 95 93 92 90 91 90 90 92 92 90 90 92 92 92 89
Wind_Direction
268 275 280 279 280 281 276 275 257 241 245 247 236 254 258 259 260 263 270 280 281 290 301 302 304 315 312 296 233 222 222 220 214 206 212 215 216 215 221 215 218 223 231 244
271 276 274 276 278 275 274 268 247 236 242 241 238 245 257 256 259 265 268 270 278 287 296 296 301 309 313 295 251 219 225 219 217 214 214 219 223 221 229 228 230 228 240 242
273 275 275 277 273 272 270 254 235 234 240 241 240 236 252 253 257 264 268 269 272 279 291 291 304 307 310 309 271 219 220 216 218 212 216 215 221 225 228 228 233 235 234 229
270 272 276 274 275 271 257 235 229 231 237 239 239 229 246 252 253 256 263 265 267 273 286 290 299 302 305 324 276 237 220 222 216 220 224 218 223 223 225 231 230 228 231 230
271 270 272 274 270 258 241 229 229 231 236 237 238 235 237 253 252 250 253 258 263 275 280 282 291 298 301 320 300 240 223 222 214 218 223 220 214 219 222 223 227 230 235 235
269 269 271 271 260 249 235 228 229 230 235 235 237 237 230 253 249 248 247 252 259 264 276 274 282 293 305 318 327 258 227 222 224 224 217 218 218 216 222 227 233 232 234 238
265 269 267 260 251 240 232 226 229 233 235 233 233 235 227 244 251 248 241 248 251 261 273 269 272 283 293 317 318 337 269 228 224 223 217 222 221 225 226 229 230 234 237 239
267 265 258 251 240 236 230 225 228 230 231 232 232 232 232 240 250 248 243 243 251 261 269 262 263 277 281 315 304 315 358 268 232 231 231 227 224 224 224 228 232 236 238 242
261 256 249 241 236 233 225 223 227 229 229 232 230 228 231 235 245 242 238 239 249 259 265 270 261 277 277 292 289 288 283 310 263 234 233 238 240 235 229 225 230 232 234 240
253 250 242 235 230 230 225 225 228 230 233 234 230 228 232 228 239 241 237 241 252 258 261 261 269 263 271 273 292 270 272 265 266 247 249 253 243 240 241 238 237 235 237 239
245 243 236 231 228 228 227 227 230 231 233 235 225 228 230 230 236 244 241 236 247 254 253 252 261 268 258 266 277 281 264 274 274 270 281 305 278 243 236 237 239 238 236 239
239 239 233 229 228 228 230 231 232 233 233 231 221 227 228 225 231 236 244 242 242 246 247 247 250 264 256 258 265 272 276 270 272 282 288 294 326 257 240 238 240 239 239 239
234 234 229 226 222 223 227 231 231 229 230 228 222 223 227 233 236 239 242 243 242 245 242 247 248 249 257 254 259 260 265 265 272 274 286 292 299 310 281 237 238 241 245 247
232 234 227 224 225 226 227 232 229 225 221 224 222 222 229 232 235 239 242 243 239 243 239 245 249 247 249 245 251 255 260 255 257 263 273 282 283 291 289 295 288 267 258 255
231 231 227 224 224 223 223 224 227 221 219 219 221 221 228 232 235 242 246 245 239 241 239 245 250 247 246 249 248 256 263 252 252 251 264 266 281 282 286 275 266 272 278 283
229 229 225 223 222 224 224 223 227 223 220 215 215 222 227 231 234 237 241 243 238 239 243 244 246 247 245 243 250 253 263 252 250 246 256 279 271 272 290 288 286 281 279 273
225 225 224 224 224 222 222 222 220 221 220 217 218 223 227 228 230 232 240 241 244 244 242 242 242 247 245 246 249 247 249 253 256 247 255 273 264 273 277 281 285 286 287 286
223 225 222 224 226 222 221 221 221 220 224 220 217 222 229 230 235 235 235 239 241 245 248 249 250 244 247 247 249 252 248 247 254 261 260 265 266 270 273 280 274 279 284 285
223 225 221 222 226 225 220 223 219 221 223 224 229 226 226 227 230 234 237 240 243 241 244 249 250 252 251 251 249 248 250 251 252 255 258 261 263 266 269 273 277 272 274 279
222 223 223 222 225 229 226 225 228 226 224 222 223 227 231 229 228 233 234 239 242 246 245 248 250 251 248 250 253 256 261 257 257 255 254 256 259 262 266 268 270 272 271 276
223 223 221 224 226 229 233 230 231 230 228 225 226 228 227 227 229 232 235 237 241 244 245 248 250 248 252 256 259 266 259 253 252 253 253 255 257 260 264 266 269 273 274 276
223 224 224 226 227 229 233 231 231 233 231 229 230 232 232 229 228 229 233 236 239 240 242 246 248 251 252 256 260 259 254 256 255 256 254 257 258 260 262 266 270 271 274 277
224 225 225 227 229 231 236 233 231 234 234 236 237 238 238 237 236 236 234 236 238 238 240 244 248 251 257 257 253 248 249 254 257 259 260 262 265 266 266 269 273 274 276 276
224 227 227 229 232 235 237 238 236 235 238 241 244 246 248 248 247 246 245 241 240 240 242 243 248 250 249 251 250 251 252 254 256 260 258 256 258 262 264 267 270 271 272 277
226 229 230 233 234 237 239 242 244 244 244 246 247 251 254 257 258 258 257 255 252 251 250 248 247 245 245 247 249 249 252 254 256 259 260 260 260 261 263 266 270 275 278 282
229 231 231 235 237 238 241 242 245 249 251 253 254 256 256 258 259 259 258 259 257 254 252 252 251 251 252 251 250 249 251 253 256 260 263 263 263 266 268 271 274 276 279 281